This demonstration page uses our WeatherBlox Daily Observations layout. Learn more.

38.80484, -77.04692

Hourly Observations for November 22, 2019

Temp ( °F °C ) Dew Point ( °F °C ) Humidity (%) Winds ( mph kmh ) Pressure ( in mb ) Visibility ( mi km ) Precip ( " mm )
12:52 am 00:52 Cloudy 52 11.1 37 2.8 57 57 SSW 12 19 29.98 1015 10 16.0934 0 0
2:52 am 02:52 Mostly Cloudy 48 8.9 40 4.4 74 74 S 7 11 29.94 1014 10 16.0934 0 0
3:52 am 03:52 Mostly Cloudy 49 9.4 39 3.9 69 69 S 6 9 29.92 1013 10 16.0934 0 0
4:52 am 04:52 Mostly Clear 49 9.4 39 3.9 69 69 SSW 7 11 29.91 1013 10 16.0934 0 0
5:52 am 05:52 Mostly Cloudy 50 10 40 4.4 68 68 SSW 7 11 29.9 1013 10 16.0934 0 0
6:52 am 06:52 Cloudy 49 9.4 42 5.6 77 77 S 8 13 29.89 1012 10 16.0934 0 0
7:52 am 07:52 Mostly Cloudy 51 10.6 41 5 69 69 SSW 8 13 29.87 1012 10 16.0934 0 0
8:52 am 08:52 Cloudy 52 11.1 43 6.1 72 72 S 9 15 29.85 1011 10 16.0934 0 0
9:19 am 09:19 Cloudy with Light Rain 52 11.1 44 6.7 75 75 S 6 9 29.87 1012 10 16.0934 0.001 0.001
9:52 am 09:52 Cloudy with Light Rain 52 11.1 44 6.7 75 75 SSW 6 9 29.87 1012 10 16.0934 0.01 0.254
10:21 am 10:21 Cloudy with Rain 51 10.6 47 8.3 86 86 SSW 6 9 29.89 1012 5 8.0467 0.05 1.27
10:52 am 10:52 Cloudy with Rain 51 10.6 48 8.9 89 89 SW 9 15 29.88 1012 5 8.0467 0.1 2.54
11:52 am 11:52 Cloudy with Rain 51 10.6 49 9.4 92 92 SSW 10 17 29.85 1011 3 4.82802 0.09 2.286
12:42 pm 12:42 Cloudy 53 11.7 51 10.6 93 93 SW 9 15 29.82 1010 10 16.0934 0.02 0.508
12:52 pm 12:52 Cloudy 53 11.7 51 10.6 93 93 SSW 8 13 29.81 1010 10 16.0934 0.02 0.508
1:40 pm 13:40 Cloudy 54 12.2 51 10.6 90 90 WNW 10 17 29.87 1012 10 16.0934 0 0
1:52 pm 13:52 Cloudy 55 12.8 51 10.6 87 87 WNW 8 13 29.87 1012 10 16.0934 0 0
2:52 pm 14:52 Cloudy 55 12.8 45 7.2 69 69 WNW 9 15 29.86 1011 10 16.0934 0 0
3:52 pm 15:52 Mostly Cloudy 55 12.8 38 3.3 53 53 WNW 12 19 29.88 1012 10 16.0934 0 0
4:52 pm 16:52 Mostly Cloudy 53 11.7 36 2.2 52 52 NNW 14 22 29.92 1013 10 16.0934 0 0
5:52 pm 17:52 Mostly Cloudy 52 11.1 32 0 47 47 NW 20 31 29.97 1015 10 16.0934 0 0
6:52 pm 18:52 Mostly Clear 50 10 32 0 50 50 NW 13 20 30.01 1016 10 16.0934 0 0
7:52 pm 19:52 Clear 48 8.9 30 -1.1 50 50 NW 12 19 30.04 1017 10 16.0934 0 0
8:52 pm 20:52 Clear 45 7.2 30 -1.1 56 56 NNW 7 11 30.07 1018 10 16.0934 0 0
9:52 pm 21:52 Clear 43 6.1 30 -1.1 60 60 NNW 9 15 30.08 1019 10 16.0934 0 0
10:52 pm 22:52 Clear 42 5.6 28 -2.2 58 58 NNW 8 13 30.09 1019 10 16.0934 0 0
11:52 pm 23:52 Clear 40 4.4 28 -2.2 63 63 NNW 7 11 30.1 1019 10 16.0934 0 0

Powered by AerisWeather